This is the latest recevied weather packets stored in our database for station/object N3TTT-13. If no packets are shown the sender has not sent any weather packets the latest 10 day(s).
| Time | Temp. | Humidity | Pressure | Rain* | Wind** | Luminosity | Snow |
|---|---|---|---|---|---|---|---|
| 1777823682 | 11.67° C | 50% | 1015.8 hPa | 0 mm | - | 214 W/m² | - |
| 1777823379 | 11.67° C | 49% | 1015.5 hPa | 0 mm | - | 812 W/m² | - |
| 1777823077 | 12.78° C | 47% | 1015.7 hPa | 0 mm | - | 797 W/m² | - |
| 1777822775 | 11.67° C | 49% | 1015.5 hPa | 0 mm | - | 803 W/m² | - |
| 1777822472 | 10.56° C | 52% | 1015.6 hPa | 0 mm | - | 527 W/m² | - |
| 1777822170 | 12.22° C | 50% | 1015.5 hPa | 0 mm | - | 223 W/m² | - |
| 1777821867 | 11.11° C | 52% | 1015.7 hPa | 0 mm | - | 821 W/m² | - |
| 1777821564 | 10.56° C | 53% | 1016 hPa | 0 mm | - | 819 W/m² | - |
| 1777821262 | 11.11° C | 53% | 1015.7 hPa | 0 mm | - | 851 W/m² | - |
| 1777820959 | 11.67° C | 52% | 1015.9 hPa | 0 mm | - | 834 W/m² | - |
| 1777820655 | 11.11° C | 50% | 1015.9 hPa | 0 mm | - | 777 W/m² | - |
| 1777820351 | 11.11° C | 51% | 1016 hPa | 0 mm | - | 836 W/m² | - |
| 1777820049 | 11.67° C | 52% | 1015.8 hPa | 0 mm | - | 243 W/m² | - |
| 1777819746 | 11.11° C | 50% | 1016.1 hPa | 0 mm | - | 861 W/m² | - |
| 1777819444 | 11.67° C | 54% | 1016 hPa | 0 mm | - | 819 W/m² | - |
| 1777819142 | 10.56° C | 53% | 1015.7 hPa | 0 mm | - | 805 W/m² | - |
| 1777818838 | 11.11° C | 55% | 1016 hPa | 0 mm | - | 770 W/m² | - |
| 1777818534 | 11.67° C | 54% | 1015.9 hPa | 0 mm | - | 753 W/m² | - |
| 1777818232 | 11.11° C | 53% | 1016.1 hPa | 0 mm | - | 764 W/m² | - |
| 1777817927 | 11.11° C | 56% | 1015.8 hPa | 0 mm | - | 767 W/m² | - |
| 1777817625 | 10.56° C | 56% | 1015.9 hPa | 0 mm | - | 708 W/m² | - |
| 1777817322 | 11.11° C | 55% | 1016 hPa | 0 mm | - | 698 W/m² | - |
| 1777817019 | 11.67° C | 56% | 1015.9 hPa | 0 mm | - | 651 W/m² | - |
| 1777816715 | 10.56° C | 58% | 1015.9 hPa | 0 mm | - | 247 W/m² | - |
| 1777816412 | 10.56° C | 56% | 1015.8 hPa | 0 mm | - | 651 W/m² | - |
* Rain latest hour (hover to see other rain measurements)
** Current wind speed in m/s (hover to see current wind gust speed)